COSMOS 2251 DEB, 34761

Orbit data source: Space-Track

COSMOS 2251 DEB, 34761 is space debris in LEO originally from a launch on Wed, 16 Jun 1993 UTC launched from the Plesetsk Missile And Space Complex (PKMTR). The debris from Iridium 33, an American commercial communications satellite, has been tracked extensively since its accidental collision with the defunct Russian satellite Cosmos 2251 in 2009. This event, occurring at high speed in low Earth orbit (LEO), generated thousands of pieces of space debris, significantly increasing the risk of further collisions. The Iridium 33 debris cloud has impacted space traffic management and orbital debris mitigation strategies, making it a subject of ongoing study in space situational awareness.

Loading next visibility...
Identifier
34761, 1993-036AAF
Orbit
LEO
Country
Flag of CISCIS
Related business
Manufacturer
Unknown
Mission
Spacecraft
Bus & Motor
Unknown
Mass
Unknown
Launch date (UTC)
1993-06-16 (33 years ago)
Launch vehicle
Unknown
Launch site
Plesetsk Missile And Space Complex (PKMTR)
Object type
Payload
Rocket body
Debris
Shape & HBR
Unknown shape, 0.1 m
Radar Cross Section
Medium (>0.1 m² and <1 m²)

Expand to show TLE details & history
Last TLE update: 21 hours ago

TLE from 21 hours ago
0 COSMOS 2251 DEB
1 34761U 93036AAF 26207.26127626  .00001342  00000-0  44107-3 0  9990
2 34761  74.0291 306.8816 0038162 291.0849  68.6227 14.38841445908922
Epoch: 2026-07-26T06:16Z
TLE epoch observation values (Epoch: 2026-07-26T06:16:14.268Z)
Latitude
-0.00002°
Longitude
-91.1396°
Altitude
755.099 km
Speed
7.482 km/s
True Right ascension
20h 27m 31s
True Declination
0° 00' 00"
Sunlit
Object was in full shadow at epoch
Visualization orbit readout
Latitude
Unknown
Longitude
Unknown
Altitude
Unknown
Speed
Unknown
Apparent Right ascension
Unknown
Apparent Declination
Unknown
Sunlit
N/A
Visualization observer readout
Local Sidereal Time
16:21:40
Azimuth
Unknown
Elevation
Unknown
Doppler factor
Unknown
Orbital elements
Apogee altitude
787.191 km
Perigee altitude
732.71 km
Semi-major axis
7,138.087 km
Eccentricity
0.00382
Inclination
74.0291°
RAAN
306.8816°
Arg. of periapsis
291.0849°
True anomaly
69.03062°
Mean anomaly
68.6227°
Eccentric anomaly
68.82659°
Mean motion
3.59891 °/min
Orbital period
100.03 mins
BSTAR
0.00044107
Loading maneuver chart data...
Computing Atmospheric mass density...

Documentation

Showing up to 5 results
|